User: anonymous
Location: Twentynine Palms Airport
(34.1316°N, 115.9458°W)
Time: 00:41:41
(UTC-07:00)
Language:

Oscar 19 - Orbit

View from above orbital plane
View from above orbital plane
View from above satellite
View from above satellite

Ground track
Ground track

The orbit data is extracted from the following two-line orbital elements,

1 20442U 90005G   14113.10681386  .00000270  00000-0  11551-3 0  9433
2 20442 098.4750 052.3107 0010779 315.1991 044.8322 14.32542278266799
Epoch (UTC): 23 April 2014 02:33:48
Eccentricity: 0.0010779
inclination: 98.4750°
perigee height: 775 km
apogee height: 791 km
right ascension of ascending node: 52.3107°
argument of perigee: 315.1991°
revolutions per day: 14.32542278
mean anomaly at epoch: 44.8322°
orbit number at epoch: 26679

The dashed part of the orbit path shows where the satellite is in the earth's shadow,  

DLR